Other Public Products
Issued by NWS Charleston, SC

Current Version | Previous Version | Text Only | Print | Product List | Glossary On
Versions: 1 2 3 4 5 6 7 8 9 10 11 12 13 14 15 16 17 18 19 20 21 22 23 24 25 26 27 28 29 30 31 32 33 34 35 36 37 38 39 40 41 42 43 44 45 46 47 48 49 50
907 FPUS82 KCHS 190827 OPUCHS TEST...KCHS/KSAV Gateway Observations...TEST National Weather Service Charleston SC 400 AM EDT SAT AUG 19 2017 NOTE: "fair" indicates few or no clouds below 12,000 feet with no significant weather and/or obstructions to visibility. SCZ050-WAZ558-NCZ071-TXZ119-213-PAZ071-DCZ001-FLZ074-172-MI076- NYZ176-178-MAZ016-IL014-TNZ027-NJZ106-GAZ044-MD014-190900- ...Gateway Observations for Charleston International... CITY SKY/WX TMP DP RH WIND PRES REMARKS Chas Airport PTCLDY 81 74 79 SW7 29.93F Seattle MOCLDY 64 54 69 NE15 30.15S Charlotte PTCLDY 74 73 97 N3 29.94F Dallas DFW CLEAR 80 74 81 SE3 29.96F Dallas Love PTCLDY 82 73 74 SE7 29.97S Philladelphia CLOUDY 76 73 91 SW8 29.82F Wash National CLOUDY 80 73 79 NW7 29.85F Baltimore CLOUDY 76 76 100 W5 29.84S Miami MOCLDY 82 74 76 NE3 29.96F Detroit MOCLDY 64 60 87 SW6 29.88F Newark CLOUDY 74 72 93 SW9 29.78S Laguardia CLOUDY 76 73 91 W7 29.77S J F K MOCLDY 73 73 100 W8 29.79S Boston Logan FOG 68 68 100 NE10 29.75R VSB 3/4 Ft. Lauderdale PTCLDY 80 75 84 E5 29.95F Chicago O`Hare PTCLDY 67 59 75 NW8 29.90R Chicago Midway PTCLDY 70 60 70 N8 29.90R Houston Bush PTCLDY 83 76 79 SW3 30.00S HX 91 Houston Hobby CLEAR 82 76 81 CALM 29.98F Nashville CLOUDY 70 67 90 S3 29.99S Atlanta PTCLDY 71 65 81 W7 29.99F $$ GAZ044-118-TXZ119-213-NCZ071-DCZ001-MDZ014-506-PAZ021-071-NJZ106- NYZ176-178-MAZ106-OHZ011-021-055-MIZ076-KYZ091-ILZ014-INZ047- MNZ060-ONZ431-190900- ...Gateway Observations for Savannah International... CITY SKY/WX TMP DP RH WIND PRES REMARKS Savannah Arpt MOCLDY 78 74 87 SW5 29.95F Atlanta PTCLDY 71 65 81 W7 29.99F Charlotte PTCLDY 74 73 97 N3 29.94F Dallas DFW CLEAR 80 74 81 SE3 29.96F Houston Bush PTCLDY 83 76 79 SW3 30.00S HX 91 Wash National CLOUDY 80 73 79 NW7 29.85F Wash Dulles CLOUDY 75 73 93 W3 29.87F Baltimore CLOUDY 76 76 100 W5 29.84S Philadelphia CLOUDY 76 73 91 SW8 29.82F Newark CLOUDY 74 72 93 SW9 29.78S Laguardia CLOUDY 76 73 91 W7 29.77S J F K MOCLDY 73 73 100 W8 29.79S Boston FOG 68 68 100 NE10 29.75R VSB 3/4 Pittsburg PTCLDY 68 65 90 W3 29.91F Akron CLEAR 64 60 87 S3 29.92S Cleveland CLEAR 67 63 87 SW6 29.91F Cincinnati CLOUDY 67 66 97 S5 29.94F Columbus CLEAR 63 63 99 S3 29.92F Detroit MOCLDY 64 60 87 SW6 29.88F Chicago O`Hare PTCLDY 67 59 75 NW8 29.90R Minneapolis CLEAR 62 58 86 CALM 29.92S FOG Indianapolis MOCLDY 70 63 78 VRB3 29.89F Toronto Canada MOCLDY 66 63 88 W14 29.78F $$

USA.gov is the U.S. government's official web portal to all federal, state and local government web resources and services.